TimeEST,TemperatureF,Dew PointF,Humidity,Sea Level PressureIn,VisibilityMPH,Wind Direction,Wind SpeedMPH,Gust SpeedMPH,PrecipitationIn,Events,Conditions,WindDirDegrees,DateUTC
12:54 AM,28.9,24.1,82,30.06,10.0,WSW,8.1,-,N/A,,Partly Cloudy,250,2012-11-09 05:54:00
1:54 AM,28.9,23.0,78,30.06,10.0,WSW,8.1,-,N/A,,Clear,240,2012-11-09 06:54:00
2:54 AM,28.0,23.0,81,30.07,10.0,WSW,5.8,-,N/A,,Clear,240,2012-11-09 07:54:00
3:54 AM,28.9,23.0,78,30.07,10.0,WSW,4.6,-,N/A,,Clear,240,2012-11-09 08:54:00
4:54 AM,30.0,25.0,82,30.08,10.0,West,6.9,-,N/A,,Partly Cloudy,260,2012-11-09 09:54:00
5:54 AM,32.0,27.0,82,30.09,10.0,WSW,9.2,-,N/A,,Mostly Cloudy,250,2012-11-09 10:54:00
6:54 AM,33.1,28.0,82,30.11,10.0,WSW,9.2,-,N/A,,Mostly Cloudy,250,2012-11-09 11:54:00
7:54 AM,36.0,30.0,79,30.13,10.0,West,8.1,-,N/A,,Mostly Cloudy,260,2012-11-09 12:54:00
8:54 AM,39.0,30.9,73,30.15,10.0,WSW,11.5,-,N/A,,Mostly Cloudy,250,2012-11-09 13:54:00
9:54 AM,41.0,32.0,70,30.15,10.0,West,9.2,-,N/A,,Overcast,260,2012-11-09 14:54:00
10:54 AM,42.1,33.1,70,30.16,10.0,WSW,9.2,-,N/A,,Overcast,250,2012-11-09 15:54:00
11:54 AM,44.1,36.0,73,30.14,10.0,West,9.2,-,N/A,,Overcast,260,2012-11-09 16:54:00
12:01 PM,44.6,35.6,71,30.14,10.0,West,9.2,-,N/A,,Overcast,270,2012-11-09 17:01:00
12:54 PM,44.1,35.1,71,30.14,10.0,WSW,9.2,-,N/A,,Overcast,240,2012-11-09 17:54:00
1:04 PM,44.6,35.6,71,30.13,10.0,WSW,6.9,-,N/A,,Overcast,240,2012-11-09 18:04:00
1:25 PM,46.4,35.6,66,30.13,10.0,WSW,8.1,-,N/A,,Overcast,250,2012-11-09 18:25:00
1:54 PM,46.9,35.1,63,30.13,10.0,West,10.4,-,N/A,,Overcast,270,2012-11-09 18:54:00
2:54 PM,46.0,35.1,66,30.13,10.0,WSW,9.2,-,N/A,,Overcast,250,2012-11-09 19:54:00
3:54 PM,46.0,35.1,66,30.13,9.0,West,8.1,-,N/A,,Overcast,260,2012-11-09 20:54:00
4:54 PM,46.0,35.1,66,30.14,9.0,WSW,6.9,-,N/A,,Overcast,250,2012-11-09 21:54:00
5:54 PM,46.0,35.1,66,30.14,8.0,WSW,4.6,-,N/A,,Overcast,250,2012-11-09 22:54:00
6:54 PM,46.0,36.0,68,30.15,8.0,WSW,6.9,-,N/A,,Overcast,250,2012-11-09 23:54:00
7:54 PM,45.0,36.0,71,30.15,7.0,WSW,5.8,-,N/A,,Overcast,250,2012-11-10 00:54:00
8:54 PM,45.0,37.0,74,30.17,7.0,WSW,6.9,-,N/A,,Overcast,240,2012-11-10 01:54:00
9:54 PM,46.0,37.9,73,30.17,7.0,WSW,9.2,-,N/A,,Overcast,240,2012-11-10 02:54:00
10:54 PM,45.0,37.9,76,30.18,7.0,West,6.9,-,0.00,Rain,Light Rain,260,2012-11-10 03:54:00
11:54 PM,45.0,37.9,76,30.19,6.0,WSW,6.9,-,0.00,,Haze,250,2012-11-10 04:54:00